When you browse on this site, cookies collect data to enhance your experience and personalize the content and advertising you see.
Visit our Privacy Policy to learn more. By continuing to use the site, you agree to this use of cookies and data.
  • în România
  • Lista ţărilor
  • Pe 7 zile
  • Temperatura apei
  • Meteo pe hartă
  • Widget-uri
  • user-avatar
    Intrare

    Meteo pe oră la Świętochłowice

    Astăzi, 28 Ianuarie, Marţi

    Timp Temperatura Precipitaţii Vânt Presiune Umiditate
    00:00 -1°C° 0 mm 2 m/s 731 mmHg 82%
    01:00 -1°C° 0 mm 2 m/s 730 mmHg 84%
    02:00 -1°C° 0 mm 2 m/s 730 mmHg 84%
    03:00 -1°C° 0 mm 2 m/s 729 mmHg 84%
    04:00 -1°C° 0 mm 2 m/s 729 mmHg 83%
    05:00 +1°C° 0 mm 2 m/s 728 mmHg 81%
    06:00 +1°C° 0 mm 2 m/s 728 mmHg 80%
    07:00 +1°C° 0 mm 2 m/s 727 mmHg 75%
    08:00 0°C° 0 mm 3 m/s 727 mmHg 74%
    09:00 0°C° 0 mm 4 m/s 727 mmHg 73%
    10:00 0°C° 0 mm 4 m/s 726 mmHg 72%
    11:00 +1°C° 0 mm 5 m/s 726 mmHg 71%
    12:00 +2°C° 0 mm 5 m/s 726 mmHg 70%
    13:00 +2°C° 0 mm 6 m/s 725 mmHg 68%
    14:00 +2°C° 0 mm 5 m/s 724 mmHg 71%
    15:00 +2°C° 0 mm 5 m/s 724 mmHg 74%
    16:00 +1°C° 0 mm 4 m/s 723 mmHg 78%
    17:00 +1°C° 0 mm 5 m/s 723 mmHg 80%
    18:00 +1°C° 0 mm 5 m/s 724 mmHg 81%
    19:00 +1°C° 0 mm 6 m/s 724 mmHg 83%
    20:00 +1°C° 0 mm 5 m/s 724 mmHg 83%
    21:00 0°C° 0 mm 5 m/s 723 mmHg 83%
    22:00 0°C° 0 mm 5 m/s 723 mmHg 83%
    23:00 0°C° 0 mm 5 m/s 724 mmHg 82%

    Mâine, 29 Ianuarie, Miercuri

    Timp Temperatura Precipitaţii Vânt Presiune Umiditate
    00:00 -1°C° 0 mm 5 m/s 724 mmHg 82%
    01:00 -1°C° 0 mm 5 m/s 724 mmHg 81%
    02:00 -1°C° 0 mm 5 m/s 724 mmHg 81%
    03:00 -1°C° 0 mm 5 m/s 724 mmHg 81%
    04:00 -2°C° 0 mm 5 m/s 724 mmHg 81%
    05:00 -2°C° 0 mm 5 m/s 724 mmHg 80%
    06:00 -2°C° 0 mm 5 m/s 725 mmHg 79%
    07:00 -2°C° 0 mm 4 m/s 725 mmHg 78%
    08:00 -2°C° 0 mm 5 m/s 725 mmHg 75%
    09:00 -2°C° 0 mm 6 m/s 725 mmHg 73%
    10:00 -1°C° 0 mm 6 m/s 725 mmHg 70%
    11:00 +1°C° 0 mm 6 m/s 726 mmHg 67%
    12:00 +1°C° 0 mm 6 m/s 726 mmHg 64%
    13:00 +2°C° 0 mm 6 m/s 726 mmHg 61%
    14:00 +1°C° 0 mm 6 m/s 727 mmHg 64%
    15:00 +1°C° 0 mm 5 m/s 727 mmHg 66%
    16:00 +1°C° 0 mm 5 m/s 727 mmHg 69%
    17:00 0°C° 0 mm 4 m/s 727 mmHg 75%
    18:00 0°C° 0 mm 4 m/s 728 mmHg 80%
    19:00 -1°C° 0 mm 4 m/s 728 mmHg 85%
    20:00 -1°C° 0 mm 4 m/s 729 mmHg 84%
    21:00 -1°C° 0 mm 4 m/s 729 mmHg 82%
    22:00 -1°C° 0 mm 4 m/s 729 mmHg 81%
    23:00 -1°C° 0 mm 4 m/s 729 mmHg 82%

    Poimâine, 30 Ianuarie, Joi

    Timp Temperatura Precipitaţii Vânt Presiune Umiditate
    00:00 -1°C° 0 mm 5 m/s 730 mmHg 84%
    01:00 -1°C° 0 mm 5 m/s 730 mmHg 86%
    02:00 -1°C° 0.2 mm 5 m/s 731 mmHg 87%
    03:00 -2°C° 0.2 mm 5 m/s 731 mmHg 89%
    04:00 -2°C° 0.2 mm 5 m/s 731 mmHg 91%
    05:00 -2°C° 0 mm 5 m/s 732 mmHg 89%
    06:00 -2°C° 0 mm 4 m/s 732 mmHg 86%
    07:00 -2°C° 0 mm 4 m/s 732 mmHg 84%
    08:00 -2°C° 0 mm 5 m/s 732 mmHg 80%
    09:00 -1°C° 0 mm 5 m/s 732 mmHg 75%
    10:00 -2°C° 0 mm 6 m/s 732 mmHg 71%
    11:00 -1°C° 0 mm 6 m/s 732 mmHg 75%
    12:00 -1°C° 0 mm 6 m/s 731 mmHg 78%
    13:00 -1°C° 0 mm 6 m/s 731 mmHg 81%
    14:00 -1°C° 0.5 mm 6 m/s 730 mmHg 86%
    15:00 -1°C° 0.5 mm 6 m/s 730 mmHg 90%
    16:00 -1°C° 0.5 mm 6 m/s 730 mmHg 94%
    17:00 +1°C° 0.7 mm 6 m/s 730 mmHg 94%
    18:00 +1°C° 0.7 mm 5 m/s 730 mmHg 95%
    19:00 +1°C° 0.7 mm 5 m/s 730 mmHg 95%
    20:00 +1°C° 0.1 mm 5 m/s 730 mmHg 92%
    21:00 +1°C° 0.1 mm 5 m/s 729 mmHg 89%
    22:00 +1°C° 0.1 mm 5 m/s 729 mmHg 87%
    23:00 +1°C° 0 mm 5 m/s 729 mmHg 85%

    31 Ianuarie, Vineri

    Timp Temperatura Precipitaţii Vânt Presiune Umiditate
    00:00 +1°C° 0 mm 5 m/s 728 mmHg 83%
    01:00 +1°C° 0 mm 5 m/s 728 mmHg 81%
    02:00 +1°C° 0.7 mm 6 m/s 727 mmHg 82%
    03:00 +1°C° 0.7 mm 6 m/s 727 mmHg 84%
    04:00 +1°C° 0.7 mm 6 m/s 726 mmHg 85%
    05:00 +2°C° 1.4 mm 6 m/s 725 mmHg 87%
    06:00 +2°C° 1.4 mm 6 m/s 725 mmHg 89%
    07:00 +3°C° 1.4 mm 6 m/s 725 mmHg 91%
    08:00 +4°C° 1 mm 7 m/s 725 mmHg 89%
    09:00 +5°C° 1 mm 7 m/s 725 mmHg 87%
    10:00 +5°C° 1 mm 7 m/s 725 mmHg 85%
    11:00 +6°C° 0.2 mm 7 m/s 726 mmHg 81%
    12:00 +7°C° 0.2 mm 6 m/s 727 mmHg 77%
    13:00 +8°C° 0.2 mm 6 m/s 728 mmHg 72%
    14:00 +7°C° 0.1 mm 5 m/s 728 mmHg 74%
    15:00 +7°C° 0.1 mm 4 m/s 729 mmHg 75%
    16:00 +7°C° 0.1 mm 3 m/s 729 mmHg 77%
    17:00 +7°C° 0 mm 3 m/s 730 mmHg 79%
    18:00 +5°C° 0 mm 3 m/s 731 mmHg 82%
    19:00 +6°C° 0 mm 2 m/s 731 mmHg 85%
    20:00 +5°C° 0 mm 3 m/s 731 mmHg 85%
    21:00 +5°C° 0 mm 3 m/s 732 mmHg 85%
    22:00 +5°C° 0 mm 3 m/s 732 mmHg 85%
    23:00 +5°C° 0 mm 3 m/s 732 mmHg 85%

    1 Februarie, Sâmbătă

    Timp Temperatura Precipitaţii Vânt Presiune Umiditate
    00:00 +5°C° 0 mm 3 m/s 732 mmHg 84%
    01:00 +5°C° 0 mm 4 m/s 732 mmHg 83%
    02:00 +5°C° 0 mm 4 m/s 731 mmHg 84%
    03:00 +5°C° 0 mm 4 m/s 731 mmHg 85%
    04:00 +6°C° 0 mm 4 m/s 731 mmHg 87%
    05:00 +6°C° 0 mm 4 m/s 731 mmHg 87%
    06:00 +6°C° 0 mm 4 m/s 731 mmHg 88%
    07:00 +6°C° 0 mm 4 m/s 731 mmHg 89%
    08:00 +6°C° 0 mm 4 m/s 731 mmHg 87%
    09:00 +7°C° 0 mm 4 m/s 731 mmHg 86%
    10:00 +7°C° 0 mm 5 m/s 730 mmHg 84%
    11:00 +8°C° 0 mm 5 m/s 730 mmHg 82%
    12:00 +8°C° 0 mm 5 m/s 730 mmHg 81%
    13:00 +9°C° 0 mm 6 m/s 729 mmHg 79%
    14:00 +8°C° 0.1 mm 6 m/s 729 mmHg 81%
    15:00 +8°C° 0.1 mm 6 m/s 728 mmHg 82%
    16:00 +8°C° 0.1 mm 6 m/s 728 mmHg 84%
    17:00 +8°C° 0.1 mm 6 m/s 728 mmHg 84%
    18:00 +8°C° 0.1 mm 7 m/s 727 mmHg 84%
    19:00 +8°C° 0.1 mm 7 m/s 727 mmHg 84%
    20:00 +8°C° 0.1 mm 7 m/s 727 mmHg 83%
    21:00 +8°C° 0.1 mm 7 m/s 726 mmHg 82%
    22:00 +8°C° 0.1 mm 7 m/s 725 mmHg 81%
    23:00 +8°C° 0.5 mm 7 m/s 725 mmHg 76%

    2 Februarie, Duminică

    Timp Temperatura Precipitaţii Vânt Presiune Umiditate
    00:00 +8°C° 0.5 mm 7 m/s 725 mmHg 72%
    01:00 +8°C° 0.5 mm 7 m/s 725 mmHg 68%
    02:00 +6°C° 1.2 mm 8 m/s 726 mmHg 74%
    03:00 +6°C° 1.2 mm 8 m/s 726 mmHg 80%
    04:00 +5°C° 1.2 mm 8 m/s 727 mmHg 85%
    05:00 +4°C° 0.1 mm 8 m/s 728 mmHg 80%
    06:00 +4°C° 0.1 mm 8 m/s 730 mmHg 75%
    07:00 +2°C° 0.1 mm 8 m/s 731 mmHg 70%
    08:00 +3°C° 0.1 mm 7 m/s 732 mmHg 73%
    09:00 +3°C° 0.1 mm 7 m/s 732 mmHg 75%
    10:00 +3°C° 0.1 mm 7 m/s 733 mmHg 78%
    11:00 +3°C° 0.2 mm 7 m/s 733 mmHg 78%
    12:00 +3°C° 0.2 mm 7 m/s 734 mmHg 79%
    13:00 +3°C° 0.2 mm 7 m/s 734 mmHg 79%
    14:00 +3°C° 0 mm 6 m/s 734 mmHg 77%
    15:00 +3°C° 0 mm 6 m/s 734 mmHg 75%
    16:00 +3°C° 0 mm 5 m/s 734 mmHg 73%
    17:00 +3°C° 0 mm 5 m/s 734 mmHg 73%
    18:00 +4°C° 0 mm 4 m/s 735 mmHg 72%
    19:00 +4°C° 0 mm 4 m/s 735 mmHg 72%
    20:00 +4°C° 0 mm 4 m/s 735 mmHg 74%
    21:00 +3°C° 0 mm 4 m/s 734 mmHg 76%
    22:00 +2°C° 0 mm 5 m/s 734 mmHg 78%
    23:00 +2°C° 0.2 mm 5 m/s 734 mmHg 81%
    Arată mai mult